Camp Pendleton, CA

2:11 PM PDT on September 27, 2016 (GMT -0700)
Camp Pendleton Marine Corps Air Station

Weather History for KNFG - December, 2013

Change the Weather History Date:

Thursday, December 12, 2013

  Actual Average Record
Temperature  
Mean Temperature 50 °F -  
Max Temperature 66 °F 66 °F 88 °F (2010)
Min Temperature 34 °F 37 °F 30 °F (1997)
Degree Days  
Heating Degree Days 15    
Moisture  
Dew Point 37 °F    
Average Humidity 71    
Maximum Humidity 89    
Minimum Humidity 20    
Precipitation  
Precipitation 0.00 in - - ()
Sea Level Pressure  
Sea Level Pressure 30.18 in    
Wind  
Wind Speed 3 mph (NNE)    
Max Wind Speed 9 mph    
Max Gust Speed -    
Visibility 8 miles    
Events      
Averages and records for this station are not official NWS values.
T = Trace of Precipitation, MM = Missing Value Source: NWS Daily Summary

Daily Weather History Graph

Daily Weather History Graph

Search for Another Location

Airport or City:

Trip Planner

Search our weather history database for the weather conditions in past years. The results will help you decide how hot, cold, wet, or windy it might be!

Date:

Astronomy

Dec. 12, 2013 Rise Set
Actual Time 6:43 AM PST 4:42 PM PST
Civil Twilight 6:16 AM PST 5:10 PM PST
Nautical Twilight 5:45 AM PST 5:41 PM PST
Astronomical Twilight 5:15 AM PST 6:11 PM PST
Moon 1:43 PM PST (12/12) 2:21 AM PST (12/12)
Length of Visible Light 10h 53m
Length of Day
9h 58m
Waxing Gibbous, 81% of the Moon is Illuminated
Dec 12
Waxing Gibbous
Dec 17
Full
Dec 25
Last Quarter
Jan 1
New
Jan 7
First Quarter

Hourly Weather History & Observations

Time (PST) Temp. Windchill Dew Point Humidity Pressure Visibility Wind Dir Wind Speed Gust Speed Precip Events Conditions
12:54 AM 36.0 °F - 30.9 °F 82% 30.16 in 8.0 mi Calm Calm - N/A   Clear
1:54 AM 37.0 °F 33.3 °F 33.1 °F 86% 30.17 in 9.0 mi NE 4.6 mph - N/A   Clear
2:54 AM 37.0 °F 34.5 °F 32.0 °F 82% 30.17 in 10.0 mi NE 3.5 mph - N/A   Clear
3:54 AM 37.9 °F 35.5 °F 30.9 °F 76% 30.17 in 10.0 mi NE 3.5 mph - N/A   Clear
4:54 AM 34.0 °F - 30.0 °F 85% 30.18 in 9.0 mi Calm Calm - N/A   Clear
5:54 AM 34.0 °F - 28.0 °F 79% 30.19 in 9.0 mi Calm Calm - N/A   Clear
6:54 AM 34.0 °F - 30.0 °F 85% 30.21 in 8.0 mi Calm Calm - N/A   Scattered Clouds
7:54 AM 39.9 °F - 33.1 °F 77% 30.22 in 8.0 mi Calm Calm - N/A   Partly Cloudy
8:54 AM 48.0 °F - 35.1 °F 61% 30.22 in 9.0 mi Calm Calm - N/A   Partly Cloudy
9:54 AM 55.9 °F - 36.0 °F 47% 30.21 in 9.0 mi South 3.5 mph - N/A   Partly Cloudy
10:54 AM 66.9 °F - 24.1 °F 20% 30.20 in 10.0 mi Calm Calm - N/A   Partly Cloudy
11:54 AM 66.0 °F - 37.9 °F 36% 30.18 in 9.0 mi WSW 9.2 mph - N/A   Partly Cloudy
12:54 PM 66.0 °F - 36.0 °F 33% 30.15 in 9.0 mi SSW 6.9 mph - N/A   Partly Cloudy
1:54 PM 64.0 °F - 37.9 °F 38% 30.14 in 9.0 mi SSW 9.2 mph - N/A   Partly Cloudy
2:54 PM 63.0 °F - 44.1 °F 50% 30.14 in 8.0 mi Variable 6.9 mph - N/A   Partly Cloudy
3:54 PM 60.1 °F - 48.9 °F 67% 30.15 in 7.0 mi SW 4.6 mph - N/A   Partly Cloudy
4:54 PM 55.9 °F - 48.9 °F 77% 30.16 in 7.0 mi SSW 5.8 mph - N/A   Partly Cloudy
5:54 PM 52.0 °F - 46.9 °F 83% 30.18 in 7.0 mi Calm Calm - N/A   Partly Cloudy
6:54 PM 48.9 °F - 45.0 °F 86% 30.19 in 7.0 mi NNE 4.6 mph - N/A   Clear
7:54 PM 46.9 °F - 43.0 °F 86% 30.20 in 6.0 mi NNE 3.5 mph - N/A   Clear
8:34 PM 42.1 °F - 37.9 °F 85% 30.20 in 1.8 mi Calm Calm - N/A   Clear
8:54 PM 44.1 °F - 39.0 °F 82% 30.21 in 7.0 mi Calm Calm - N/A   Clear
9:54 PM 42.1 °F 39.2 °F 37.9 °F 85% 30.20 in 7.0 mi NNE 4.6 mph - N/A   Clear
10:54 PM 39.0 °F 35.7 °F 36.0 °F 89% 30.20 in 7.0 mi NNW 4.6 mph - N/A   Clear
11:44 PM 39.9 °F - 36.0 °F 86% 30.21 in 6.0 mi Calm Calm - N/A   Partly Cloudy
11:54 PM 39.9 °F 37.8 °F 36.0 °F 86% 30.19 in 6.0 mi NE 3.5 mph - N/A   Partly Cloudy